Date String (YYYY-MM-DD hh:mm:ss) UTC,Instrument flags,Ambient pressure (hPa),Sample flow (lpm),Bypass flow (lpm),Sample temperature (°C),Ambient temperature (°C),ASC tube jacket temperature (°C),LED temperature (°C),Box temperature (°C),Sample RH (%),Span deviation,Mass concentration (μg/m³),Mass concentration (μg/m³),Mass concentration (μg/m³)
DateTimeUTC,F1_M11,P_M11,Q1_M11,Q2_M11,T1_M11,T2_M11,T3_M11,T4_M11,T5_M11,U1_M11,ZSPAN_M11,X0_M11,X2_M11,X1_M11
2022-05-31 20:00:00,,0827.3,5.00,0.00,27.4,26.2,00.0,36.3,29.2,20.7,0000.0,0004.96,0002.62,0001.78
2022-05-31 20:01:00,,0827.3,4.99,0.00,27.4,26.1,00.0,36.3,29.2,20.1,0000.0,0004.99,0002.64,0001.78
2022-05-31 20:02:00,,0827.3,5.00,0.00,27.4,26.1,00.0,36.3,29.2,20.2,0000.0,0005.18,0002.73,0001.81
2022-05-31 20:03:00,,0827.4,5.01,0.00,27.4,26.1,00.0,36.3,29.2,20.5,0000.0,0005.05,0002.74,0001.85
2022-05-31 20:04:00,,0827.4,5.00,0.00,27.4,26.2,00.0,36.3,29.2,21.0,0000.0,0004.97,0002.77,0001.89
2022-05-31 20:05:00,,0827.4,5.00,0.00,27.4,26.2,00.0,36.3,29.2,20.7,0000.0,0004.88,0002.83,0001.93
2022-05-31 20:06:00,,0827.4,5.00,0.00,27.3,26.2,00.0,36.3,29.2,20.2,0000.0,0004.79,0002.92,0001.97
2022-05-31 20:07:00,,0827.4,5.00,0.00,27.3,26.2,00.0,36.3,29.2,20.6,0000.0,0004.88,0002.96,0002.03
2022-05-31 20:08:00,,0827.4,4.99,0.00,27.3,26.1,00.0,36.3,29.2,20.6,0000.0,0005.21,0003.04,0002.09
2022-05-31 20:09:00,,0827.5,5.01,0.00,27.3,26.1,00.0,36.3,29.2,20.3,0000.0,0005.32,0003.06,0002.13
2022-05-31 20:10:00,,0827.6,4.99,0.00,27.3,26.1,00.0,36.3,29.2,20.6,0000.0,0005.14,0003.03,0002.17
2022-05-31 20:11:00,,0827.5,5.01,0.00,27.3,26.1,00.0,36.3,29.2,21.1,0000.0,0005.12,0003.03,0002.22
2022-05-31 20:12:00,,0827.6,5.00,0.00,27.3,26.1,00.0,36.3,29.2,21.1,0000.0,0005.22,0003.09,0002.25
2022-05-31 20:13:00,,0827.6,5.00,0.00,27.3,26.1,00.0,36.3,29.2,21.1,0000.0,0005.07,0003.03,0002.25
2022-05-31 20:14:00,,0827.6,5.00,0.00,27.3,26.1,00.0,36.2,29.2,21.3,0000.0,0005.14,0003.04,0002.26
2022-05-31 20:15:00,,0827.6,5.00,0.00,27.3,26.1,00.0,36.2,29.2,20.9,0000.0,0005.24,0003.07,0002.26
2022-05-31 20:16:00,,0827.5,5.00,0.00,27.3,26.1,00.0,36.2,29.2,21.0,0000.0,0005.24,0003.08,0002.26
2022-05-31 20:17:00,,0827.5,5.00,0.00,27.3,26.1,00.0,36.2,29.2,20.5,0000.0,0005.27,0003.09,0002.27
2022-05-31 20:18:00,,0827.6,5.00,0.00,27.3,26.1,00.0,36.2,29.2,20.4,0000.0,0005.81,0003.06,0002.26
2022-05-31 20:19:00,,0827.6,5.00,0.00,27.3,26.1,00.0,36.2,29.2,20.2,0000.0,0005.73,0003.06,0002.24
2022-05-31 20:20:00,,0827.6,4.99,0.00,27.3,26.1,00.0,36.2,29.2,19.7,0000.0,0005.65,0003.06,0002.24
2022-05-31 20:21:00,,0827.7,5.01,0.00,27.3,26.1,00.0,36.2,29.2,19.7,0000.0,0005.81,0003.08,0002.26
2022-05-31 20:22:00,,0827.7,5.00,0.00,27.3,26.1,00.0,36.2,29.2,20.4,0000.0,0005.80,0003.08,0002.26
2022-05-31 20:23:00,,0827.7,5.00,0.00,27.3,26.1,00.0,36.2,29.2,19.7,0000.0,0005.84,0003.09,0002.26
2022-05-31 20:24:00,,0827.7,5.01,0.00,27.3,26.1,00.0,36.2,29.2,19.1,0000.0,0005.96,0003.12,0002.27
2022-05-31 20:25:00,,0827.7,5.00,0.00,27.3,26.1,00.0,36.2,29.2,19.3,0000.0,0006.01,0003.10,0002.26
2022-05-31 20:26:00,,0827.7,5.00,0.00,27.3,26.2,00.0,36.2,29.2,19.0,0000.0,0005.84,0003.06,0002.28
2022-05-31 20:27:00,,0827.7,5.00,0.00,27.3,26.2,00.0,36.2,29.2,18.8,0000.0,0005.88,0003.09,0002.29
2022-05-31 20:28:00,,0827.7,5.00,0.00,27.3,26.2,00.0,36.2,29.2,18.7,0000.0,0005.83,0003.06,0002.28
2022-05-31 20:29:00,,0827.7,5.01,0.00,27.3,26.2,00.0,36.2,29.2,19.7,0000.0,0005.68,0003.07,0002.28
2022-05-31 20:30:00,,0827.7,4.99,0.00,27.3,26.2,00.0,36.2,29.2,19.7,0000.0,0006.81,0003.02,0002.28
2022-05-31 20:31:00,,0827.7,5.00,0.00,27.3,26.2,00.0,36.2,29.2,20.6,0000.0,0006.58,0002.98,0002.27
2022-05-31 20:32:00,,0827.7,5.00,0.00,27.3,26.2,00.0,36.2,29.2,20.6,0000.0,0006.53,0002.97,0002.25
2022-05-31 20:33:00,,0827.8,5.01,0.00,27.3,26.2,00.0,36.2,29.2,21.1,0000.0,0006.54,0002.96,0002.25
2022-05-31 20:34:00,,0827.7,5.00,0.00,27.3,26.2,00.0,36.2,29.2,20.1,0000.0,0006.58,0002.91,0002.24
2022-05-31 20:35:00,,0827.7,5.00,0.00,27.3,26.2,00.0,36.2,29.2,20.2,0000.0,0006.60,0002.90,0002.23
2022-05-31 20:36:00,,0827.7,5.00,0.00,27.3,26.2,00.0,36.2,29.2,20.7,0000.0,0006.95,0002.92,0002.25
2022-05-31 20:37:00,,0827.7,5.01,0.00,27.3,26.2,00.0,36.2,29.2,20.4,0000.0,0006.99,0002.93,0002.26
2022-05-31 20:38:00,,0827.7,5.00,0.00,27.3,26.2,00.0,36.2,29.2,20.4,0000.0,0007.01,0002.94,0002.30
2022-05-31 20:39:00,,0827.7,4.99,0.00,27.3,26.2,00.0,36.2,29.2,20.6,0000.0,0007.03,0002.98,0002.34
2022-05-31 20:40:00,,0827.7,5.00,0.00,27.3,26.2,00.0,36.2,29.2,20.6,0000.0,0006.56,0002.95,0002.36
2022-05-31 20:41:00,,0827.7,5.00,0.00,27.3,26.2,00.0,36.2,29.2,20.8,0000.0,0005.12,0002.97,0002.39
2022-05-31 20:42:00,,0827.7,4.99,0.00,27.3,26.2,00.0,36.2,29.2,21.8,0000.0,0005.20,0003.01,0002.42
2022-05-31 20:43:00,,0827.7,5.00,0.00,27.3,26.2,00.0,36.2,29.2,22.0,0000.0,0005.20,0003.04,0002.47
2022-05-31 20:44:00,,0827.7,4.99,0.00,27.3,26.2,00.0,36.2,29.1,20.8,0000.0,0005.32,0003.11,0002.50
2022-05-31 20:45:00,,0827.8,5.00,0.00,27.3,26.1,00.0,36.2,29.1,21.2,0000.0,0005.25,0003.12,0002.52
2022-05-31 20:46:00,,0827.9,5.00,0.00,27.3,26.1,00.0,36.2,29.1,21.2,0000.0,0005.06,0003.11,0002.55
2022-05-31 20:47:00,,0827.7,5.00,0.00,27.3,26.1,00.0,36.2,29.1,21.4,0000.0,0004.67,0003.13,0002.58
2022-05-31 20:48:00,,0827.7,4.98,0.00,27.3,26.1,00.0,36.2,29.1,21.2,0000.0,0004.66,0003.14,0002.60
2022-05-31 20:49:00,,0827.7,5.02,0.00,27.3,26.1,00.0,36.2,29.1,21.1,0000.0,0004.67,0003.14,0002.60
2022-05-31 20:50:00,,0827.8,5.00,0.00,27.3,26.1,00.0,36.2,29.1,21.4,0000.0,0004.56,0003.13,0002.59
2022-05-31 20:51:00,,0827.8,4.99,0.00,27.3,26.0,00.0,36.2,29.1,21.4,0000.0,0004.55,0003.13,0002.59
2022-05-31 20:52:00,,0827.8,5.00,0.00,27.2,26.0,00.0,36.2,29.1,21.6,0000.0,0004.53,0003.12,0002.59
2022-05-31 20:53:00,,0827.7,5.00,0.00,27.2,26.1,00.0,36.2,29.1,21.6,0000.0,0004.53,0003.13,0002.59
2022-05-31 20:54:00,,0827.7,5.01,0.00,27.2,26.1,00.0,36.2,29.1,21.3,0000.0,0004.73,0003.16,0002.59
2022-05-31 20:55:00,,0827.7,4.99,0.00,27.2,26.1,00.0,36.2,29.1,21.4,0000.0,0004.55,0003.13,0002.59
2022-05-31 20:56:00,,0827.7,5.00,0.00,27.2,26.1,00.0,36.2,29.1,20.1,0000.0,0004.69,0003.18,0002.63
2022-05-31 20:57:00,,0827.7,5.01,0.00,27.2,26.1,00.0,36.2,29.1,20.5,0000.0,0004.96,0003.19,0002.65
2022-05-31 20:58:00,,0827.6,5.00,0.00,27.2,26.1,00.0,36.2,29.1,21.2,0000.0,0005.17,0003.20,0002.67
2022-05-31 20:59:00,,0827.7,5.00,0.00,27.2,26.1,00.0,36.2,29.1,20.8,0000.0,0005.50,0003.23,0002.69
